EW5290 Weather Reports


time (UTC)temp
F
wind
direction
speed
knots
gust
knots
rain 1hr
in
rain 24hr
in
rain mn
in
humidity
%
barometer
mb
20260502205531 63 258 2.6 9.6 0.00 0.00 0.00 36 1015.3
20260502205032 62 323 0.9 7.0 0.00 0.00 0.00 41 1015.4
20260502204542 62 323 2.6 9.6 0.00 0.00 0.00 37 1015.4
20260502204030 62 269 1.7 11.3 0.00 0.00 0.00 37 1015.5
20260502203533 62 264 4.3 11.3 0.00 0.00 0.00 37 1015.6
20260502203105 62 238 4.3 11.3 0.00 0.00 0.00 40 1015.7
20260502202531 62 271 4.3 10.4 0.00 0.00 0.00 39 1015.8
20260502202030 61 250 2.6 6.1 0.00 0.00 0.00 36 1015.8
20260502201544 61 303 0.9 7.0 0.00 0.00 0.00 40 1015.9
20260502201029 61 293 1.7 11.3 0.00 0.00 0.00 37 1015.9
20260502200531 62 290 2.6 11.3 0.00 0.00 0.00 42 1016.1
20260502200055 62 314 1.7 7.0 0.00 0.00 0.00 41 1016.1
20260502195531 61 212 1.7 8.7 0.00 0.00 0.00 38 1016.0
20260502195028 61 266 1.7 8.7 0.00 0.00 0.00 39 1016.1
20260502194546 61 291 2.6 8.7 0.00 0.00 0.00 38 1016.3
20260502194030 60 292 1.7 8.7 0.00 0.00 0.00 39 1016.4
20260502193532 60 259 3.5 8.7 0.00 0.00 0.00 43 1016.4
20260502193043 60 294 1.7 7.8 0.00 0.00 0.00 39 1016.5
20260502192528 60 263 2.6 7.8 0.00 0.00 0.00 38 1016.6
20260502192029 59 252 2.6 7.8 0.00 0.00 0.00 42 1016.7
20260502191547 60 323 2.6 7.8 0.00 0.00 0.00 42 1016.8
20260502191030 59 262 2.6 7.8 0.00 0.00 0.00 41 1016.8
20260502190529 59 291 1.7 8.7 0.00 0.00 0.00 41 1016.8
20260502190041 59 325 2.6 8.7 0.00 0.00 0.00 38 1017.0
20260502185529 59 241 2.6 7.8 0.00 0.00 0.00 39 1017.0
20260502185032 59 254 1.7 7.8 0.00 0.00 0.00 39 1017.2
20260502184547 59 290 2.6 8.7 0.00 0.00 0.00 39 1017.4
20260502184031 58 271 2.6 8.7 0.00 0.00 0.00 41 1017.4
20260502183530 58 269 2.6 8.7 0.00 0.00 0.00 44 1017.5
20260502183048 58 227 1.7 9.6 0.00 0.00 0.00 40 1017.6
20260502182531 58 317 4.3 9.6 0.00 0.00 0.00 37 1017.7
20260502182030 58 256 2.6 10.4 0.00 0.00 0.00 41 1017.7
20260502181547 57 279 3.5 13.9 0.00 0.00 0.00 40 1017.8
20260502181030 57 250 2.6 13.9 0.00 0.00 0.00 40 1017.8
20260502180530 58 253 3.5 13.9 0.00 0.00 0.00 40 1018.0
20260502164029 54 261 3.5 8.7 0.00 0.00 0.00 42 1018.9
20260502163529 54 293 2.6 7.0 0.00 0.00 0.00 42 1019.1
20260502163057 54 24 1.7 7.0 0.00 0.00 0.00 44 1019.1
20260502162533 54 244 2.6 7.0 0.00 0.00 0.00 42 1019.2
20260502162029 54 309 1.7 7.8 0.00 0.00 0.00 43 1019.1
20260502161558 54 257 2.6 7.8 0.00 0.00 0.00 44 1019.2
20260502161028 53 305 2.6 7.8 0.00 0.00 0.00 44 1019.3
20260502160530 53 259 1.7 7.8 0.00 0.00 0.00 45 1019.3
20260502152031 52 316 1.7 7.0 0.00 0.00 0.00 49 1019.5
20260502151545 52 334 2.6 7.0 0.00 0.00 0.00 50 1019.6
20260502151031 52 279 1.7 6.1 0.00 0.00 0.00 49 1019.6
20260502150528 52 317 2.6 6.1 0.00 0.00 0.00 53 1019.6
20260502130529 38 238 0.0 1.7 0.00 0.00 0.00 88 1020.0
20260502123528 30 0 0.0 0.0 0.00 0.00 0.00 95 1020.0
20260502123109 30 0 0.0 0.0 0.00 0.00 0.00 95 1020.0
20260502122528 29 0 0.0 0.0 0.00 0.00 0.00 95 1019.8
20260502122030 29 0 0.0 0.0 0.00 0.00 0.00 95 1019.8
20260502121544 29 0 0.0 0.0 0.00 0.00 0.00 94 1019.9
20260502121030 29 0 0.0 0.0 0.00 0.00 0.00 94 1019.9
20260502120530 28 0 0.0 0.0 0.00 0.00 0.00 94 1019.9
20260502115530 28 0 0.0 0.0 0.00 0.00 0.00 94 1019.9
20260502115030 28 0 0.0 0.0 0.00 0.00 0.00 93 1019.9
20260502114548 28 0 0.0 0.0 0.00 0.00 0.00 93 1019.7
20260502114031 28 0 0.0 0.0 0.00 0.00 0.00 93 1019.7
20260502113535 28 0 0.0 0.0 0.00 0.00 0.00 93 1019.6
20260502113050 28 0 0.0 0.0 0.00 0.00 0.00 93 1019.6
20260502112529 28 0 0.0 0.0 0.00 0.00 0.00 93 1019.5
20260502112031 27 0 0.0 0.0 0.00 0.00 0.00 93 1019.5
20260502111548 27 0 0.0 0.0 0.00 0.00 0.00 93 1019.6
20260502111030 27 0 0.0 0.0 0.00 0.00 0.00 93 1019.6
20260502110530 27 0 0.0 0.0 0.00 0.00 0.00 92 1019.6
20260502110047 28 0 0.0 0.0 0.00 0.00 0.00 93 1019.5
20260502105530 28 0 0.0 0.0 0.00 0.00 0.00 93 1019.5
20260502105030 28 0 0.0 0.0 0.00 0.00 0.00 93 1019.5
20260502104543 28 0 0.0 0.0 0.00 0.00 0.00 93 1019.6
20260502104030 28 0 0.0 0.0 0.00 0.00 0.00 93 1019.5
20260502103530 28 0 0.0 0.0 0.00 0.00 0.00 92 1019.6
20260502103043 28 0 0.0 0.0 0.00 0.00 0.00 92 1019.6
20260502102530 28 0 0.0 0.0 0.00 0.00 0.00 92 1019.5
20260502102030 28 0 0.0 0.0 0.00 0.00 0.00 92 1019.6
20260502101542 28 0 0.0 0.0 0.00 0.00 0.00 92 1019.6
20260502101029 28 0 0.0 0.0 0.00 0.00 0.00 92 1019.6
20260502100529 28 0 0.0 0.0 0.00 0.00 0.00 92 1019.6
20260502091030 28 0 0.0 0.0 0.00 0.00 0.00 91 1019.4
20260502090528 28 0 0.0 0.0 0.00 0.00 0.00 91 1019.4
20260502071030 31 0 0.0 0.0 0.00 0.00 0.00 87 1019.6
20260502070530 31 0 0.0 0.0 0.00 0.00 0.00 86 1019.6
20260502070104 31 0 0.0 0.0 0.00 0.00 0.00 86 1019.6
20260502065529 31 0 0.0 0.0 0.00 0.01 0.00 86 1019.5
20260502065030 31 0 0.0 0.0 0.00 0.01 0.00 86 1019.6
20260502064552 31 0 0.0 0.0 0.00 0.01 0.00 85 1019.6
20260502064030 32 0 0.0 0.0 0.00 0.01 0.00 86 1019.6
20260502063530 32 0 0.0 0.0 0.00 0.01 0.00 85 1019.6
20260502063050 32 0 0.0 0.0 0.00 0.01 0.00 86 1019.6
20260502062530 31 0 0.0 0.0 0.00 0.01 0.00 86 1019.7
20260502062027 32 0 0.0 0.0 0.00 0.01 0.00 86 1019.7
20260502061542 32 0 0.0 0.0 0.00 0.01 0.00 86 1019.7
20260502061028 32 0 0.0 0.0 0.00 0.01 0.00 86 1019.7
20260502060528 32 0 0.0 0.0 0.00 0.01 0.00 86 1019.7
20260502060045 32 0 0.0 0.0 0.00 0.01 0.00 86 1019.6
20260502055529 32 0 0.0 0.0 0.00 0.01 0.00 85 1019.6
20260502055030 32 0 0.0 0.0 0.00 0.01 0.00 85 1019.6
20260502054550 33 0 0.0 0.0 0.00 0.01 0.00 85 1019.5
20260502054030 33 0 0.0 0.0 0.00 0.01 0.00 85 1019.5
20260502053527 33 0 0.0 0.0 0.00 0.01 0.00 84 1019.5
20260502053051 33 0 0.0 0.0 0.00 0.01 0.00 84 1019.5
20260502052530 33 0 0.0 0.0 0.00 0.01 0.00 84 1019.4
20260502052031 34 0 0.0 0.0 0.00 0.01 0.00 83 1019.5
20260502051558 34 0 0.0 0.0 0.00 0.01 0.00 83 1019.5
20260502051027 34 0 0.0 0.0 0.00 0.01 0.00 82 1019.4
20260502050530 34 0 0.0 0.0 0.00 0.01 0.00 82 1019.4
20260502050047 35 0 0.0 0.0 0.00 0.01 0.00 82 1019.4
20260502045532 35 0 0.0 0.0 0.00 0.01 0.01 82 1019.3
20260502045032 35 0 0.0 0.0 0.00 0.01 0.01 82 1019.3
20260502044545 35 0 0.0 0.0 0.00 0.01 0.01 79 1019.3
20260502044032 36 0 0.0 0.0 0.00 0.01 0.01 79 1019.3
20260502043530 36 0 0.0 0.0 0.00 0.01 0.01 78 1019.2
20260502043045 36 0 0.0 0.0 0.00 0.01 0.01 77 1019.3
20260502042530 37 0 0.0 0.0 0.00 0.01 0.01 77 1019.3
20260502042028 37 0 0.0 0.0 0.00 0.01 0.01 76 1019.3
20260502041541 38 0 0.0 0.0 0.00 0.01 0.01 73 1019.3
20260502041030 38 0 0.0 0.0 0.00 0.01 0.01 72 1019.3
20260502040529 39 0 0.0 0.0 0.00 0.01 0.01 71 1019.1
20260502040038 39 0 0.0 0.0 0.00 0.01 0.01 70 1019.2
20260502035530 39 0 0.0 0.0 0.00 0.01 0.01 69 1019.1
20260502035027 39 0 0.0 0.0 0.00 0.01 0.01 68 1019.3
20260502034546 40 0 0.0 0.0 0.00 0.01 0.01 68 1019.2
20260502034030 40 0 0.0 0.0 0.00 0.01 0.01 70 1019.1
20260502033530 40 0 0.0 0.0 0.00 0.01 0.01 69 1019.2
20260502033049 40 0 0.0 0.0 0.00 0.01 0.01 68 1019.2
20260502032530 41 0 0.0 0.0 0.00 0.01 0.01 69 1019.1
20260502032030 41 0 0.0 0.0 0.00 0.01 0.01 70 1019.2
20260502031544 41 0 0.0 0.0 0.00 0.01 0.01 70 1019.2
20260502031034 42 0 0.0 0.0 0.00 0.01 0.01 69 1019.2
20260502030529 43 0 0.0 0.0 0.00 0.01 0.01 68 1019.1
20260502030047 43 0 0.0 0.0 0.00 0.01 0.01 65 1019.1
20260502025530 44 0 0.0 0.0 0.00 0.01 0.01 61 1019.1
20260502025030 44 0 0.0 0.0 0.00 0.01 0.01 60 1019.0
20260502024542 44 0 0.0 0.0 0.00 0.01 0.01 57 1019.0
20260502024030 44 0 0.0 0.0 0.00 0.01 0.01 58 1018.9
20260502023530 44 0 0.0 0.0 0.00 0.01 0.01 58 1018.8
20260502023043 44 0 0.0 0.0 0.00 0.01 0.01 58 1018.8
20260502022530 45 0 0.0 0.0 0.00 0.01 0.01 58 1018.8
20260502022034 45 0 0.0 0.0 0.00 0.01 0.01 58 1018.7
20260502021542 45 0 0.0 0.0 0.00 0.01 0.01 56 1018.7
20260502021030 45 0 0.0 0.0 0.00 0.01 0.01 57 1018.7
20260502020530 45 0 0.0 1.7 0.00 0.01 0.01 56 1018.7
20260502020048 45 0 0.0 1.7 0.00 0.01 0.01 56 1018.6
20260502015533 45 0 0.0 0.0 0.00 0.01 0.01 56 1018.6
20260502015035 45 0 0.0 0.0 0.00 0.01 0.01 57 1018.4
20260502014548 45 0 0.0 0.9 0.00 0.01 0.01 56 1018.5
20260502014033 46 0 0.0 0.9 0.00 0.01 0.01 56 1018.4
20260502013529 46 0 0.0 0.9 0.00 0.01 0.01 55 1018.4
20260502013046 46 0 0.0 0.9 0.00 0.01 0.01 53 1018.3
20260502012529 47 0 0.0 0.9 0.00 0.01 0.01 54 1018.2
20260502012032 47 0 0.0 0.0 0.00 0.01 0.01 52 1018.2
20260502011547 47 0 0.0 0.9 0.00 0.01 0.01 50 1018.2
20260502011030 48 0 0.0 0.9 0.00 0.01 0.01 51 1018.1
20260502010530 48 0 0.0 0.0 0.00 0.01 0.01 51 1018.1
20260502010043 48 0 0.0 0.9 0.00 0.01 0.01 50 1018.1
20260502005530 48 0 0.0 0.9 0.00 0.01 0.01 48 1018.0
20260502005030 49 0 0.0 1.7 0.00 0.01 0.01 49 1017.9
20260502004542 49 0 0.0 1.7 0.00 0.01 0.01 48 1017.8
20260502004035 49 0 0.0 2.6 0.00 0.01 0.01 47 1017.8
20260502003533 49 0 0.0 2.6 0.00 0.01 0.01 48 1017.7
20260502003049 50 0 0.0 3.5 0.00 0.01 0.01 49 1017.7
20260502002529 50 0 0.0 3.5 0.00 0.01 0.01 47 1017.8
20260502002029 50 0 0.0 3.5 0.00 0.01 0.01 46 1017.7
20260502001552 50 0 0.0 2.6 0.00 0.01 0.01 45 1017.6
20260502001030 50 48 0.0 1.7 0.00 0.01 0.01 48 1017.6
20260502000530 50 0 0.0 2.6 0.00 0.01 0.01 45 1017.6
20260502000054 50 0 0.0 2.6 0.00 0.01 0.01 45 1017.6
20260501235530 51 0 0.0 2.6 0.00 0.01 0.01 45 1017.6
20260501235032 51 0 0.0 2.6 0.00 0.01 0.01 46 1017.6
20260501234545 51 0 0.0 2.6 0.00 0.01 0.01 46 1017.6
20260501234029 51 71 0.0 4.3 0.00 0.01 0.01 45 1017.4
20260501233530 51 78 0.9 4.3 0.00 0.01 0.01 45 1017.5
20260501233043 52 0 0.0 3.5 0.00 0.01 0.01 45 1017.5
20260501232530 52 15 0.0 3.5 0.00 0.01 0.01 44 1017.5
20260501232029 52 344 1.7 4.3 0.00 0.01 0.01 43 1017.4
20260501231543 52 0 1.7 4.3 0.00 0.01 0.01 44 1017.5
20260501231030 52 0 0.0 2.6 0.00 0.01 0.01 46 1017.5
20260501230531 52 53 0.0 2.6 0.00 0.01 0.01 46 1017.5
20260501230041 52 44 0.0 2.6 0.00 0.01 0.01 44 1017.4
20260501225530 52 0 0.9 3.5 0.00 0.01 0.01 46 1017.5
20260501225030 52 0 0.0 3.5 0.00 0.01 0.01 44 1017.5
20260501224546 52 5 0.9 3.5 0.00 0.01 0.01 44 1017.4
20260501224029 52 0 0.9 3.5 0.00 0.01 0.01 45 1017.4
20260501223533 52 0 0.0 3.5 0.00 0.01 0.01 44 1017.4
20260501223048 52 0 1.7 3.5 0.00 0.01 0.01 44 1017.5
20260501222533 52 360 0.9 2.6 0.00 0.01 0.01 44 1017.5
20260501222030 52 82 0.0 4.3 0.00 0.01 0.01 46 1017.5
20260501221554 52 0 0.9 4.3 0.00 0.01 0.01 45 1017.4
20260501221030 52 67 0.9 3.5 0.00 0.01 0.01 45 1017.4
20260501220530 52 78 0.0 5.2 0.00 0.01 0.01 47 1017.4
20260501220044 52 323 0.9 5.2 0.00 0.01 0.01 44 1017.4
20260501215529 52 0 0.0 3.5 0.00 0.01 0.01 46 1017.4
20260501215030 52 14 0.9 6.1 0.00 0.01 0.01 43 1017.3
20260501214544 52 94 0.9 6.1 0.00 0.01 0.01 44 1017.4
20260501214029 52 322 0.9 6.1 0.00 0.01 0.01 42 1017.3
20260501213530 52 5 0.9 4.3 0.00 0.01 0.01 42 1017.4
20260501213050 53 0 0.0 4.3 0.00 0.01 0.01 43 1017.4
20260501212529 53 63 1.7 4.3 0.00 0.01 0.01 40 1017.4
20260501212029 54 342 0.9 4.3 0.00 0.01 0.01 42 1017.3
20260501211547 55 346 0.9 6.1 0.00 0.01 0.01 43 1017.3
20260501211029 54 47 0.9 7.0 0.00 0.01 0.01 45 1017.2
20260501210530 53 88 1.7 7.0 0.00 0.01 0.01 47 1017.3
20260501210046 52 11 0.9 6.1 0.00 0.01 0.01 43 1017.4